Volver al catálogo

ONEWEB-0402

ActivoComunicacionesPO
NORAD 50482·PAYLOAD·🇬🇧 United Kingdom

Lanzado Dec 27, 2021 desde Baikonur Cosmodrome

Loading…

Próximos Pases (próximas 24 horas)

TLE

ActualizadoSource: CelesTrak SupGP

Época: Sep 14, 2026, 19:15 UTC

1 50482C 21132P   26257.80226111 -.00001195  00000+0 -30337-2 0  2573
2 50482  87.9168 317.6298 0002396  93.5500  16.5324 13.18688596    15

Sigue ONEWEB-0402 en tiempo real con AllMySat

Download on the App Store